,

(GMT )
Al Udeid

Weather History for KQIR - May, 2014

Change the Weather History Date:

Saturday, May 17, 2014

  Actual Average Record
Temperature  
Mean Temperature 86 °F -  
Max Temperature 100 °F - - ()
Min Temperature 73 °F - - ()
Cooling Degree Days 22    
Growing Degree Days 36 (Base 50)    
Moisture  
Dew Point 53 °F    
Average Humidity 37    
Maximum Humidity 63    
Minimum Humidity 12    
Precipitation  
Precipitation 0.00 in - - ()
Sea Level Pressure  
Sea Level Pressure 29.77 in    
Wind  
Wind Speed 8 mph ()    
Max Wind Speed 16 mph    
Max Gust Speed 20 mph    
Visibility 6.2 miles    
Events      
Averages and records for this station are not official NWS values.
T = Trace of Precipitation, MM = Missing Value Source: Averaged Metar Reports

Daily Weather History Graph

Daily Weather History Graph

Search for Another Location

Airport or City:

Trip Planner

Search our weather history database for the weather conditions in past years. The results will help you decide how hot, cold, wet, or windy it might be!

Date:

Astronomy

May. 17, 2014 Rise Set
Actual Time 4:49 AM AST 6:13 PM AST
Civil Twilight 4:24 AM AST 6:38 PM AST
Nautical Twilight 3:54 AM AST 7:07 PM AST
Astronomical Twilight 3:24 AM AST 7:38 PM AST
Moon 8:54 PM AST (5/17) 7:07 AM AST (5/17)
Length of Visible Light 14h 13m
Length of Day
13h 23m
Waning Gibbous, 91% of the Moon is Illuminated
May 17
Waning Gibbous
May 21
Last Quarter
May 28
New
Jun 5
First Quarter
Jun 13
Full

Hourly Weather History & Observations

Time (AST) Temp. Heat Index Dew Point Humidity Pressure Visibility Wind Dir Wind Speed Gust Speed Precip Events Conditions
1:58 AM 75.6 °F - 57.2 °F 53% 29.73 in 6.2 mi West 5.8 mph - N/A   Clear
2:58 AM 74.7 °F - 56.8 °F 54% 29.73 in 6.2 mi WSW 11.5 mph - N/A   Partly Cloudy
3:58 AM 74.5 °F - 60.3 °F 61% 29.73 in 6.2 mi SW 8.1 mph - N/A   Clear
4:58 AM 73.8 °F - 60.6 °F 63% 29.75 in 6.2 mi WSW 12.7 mph - N/A   Clear
5:58 AM 76.6 °F - 62.8 °F 62% 29.77 in 6.2 mi West 10.4 mph - N/A   Clear
6:58 AM 82.2 °F 82.9 °F 61.5 °F 49% 29.78 in 6.2 mi West 13.8 mph - N/A   Clear
7:58 AM 88.7 °F 86.5 °F 54.0 °F 30% 29.78 in 6.2 mi West 12.7 mph - N/A   Clear
8:58 AM 93.0 °F - 49.3 °F 22% 29.81 in 6.2 mi West 13.8 mph - N/A   Partly Cloudy
9:58 AM 95.4 °F - 46.2 °F 19% 29.81 in 6.2 mi NW 11.5 mph - N/A   Partly Cloudy
10:58 AM 97.3 °F - 44.1 °F 16% 29.80 in 6.2 mi NW 12.7 mph 19.6 mph N/A   Scattered Clouds
11:58 AM 98.1 °F - 43.7 °F 15% 29.78 in 6.2 mi NW 8.1 mph 18.4 mph N/A   Scattered Clouds
12:58 PM 98.8 °F - 42.4 °F 14% 29.75 in 6.2 mi NNW 8.1 mph - N/A   Partly Cloudy
1:58 PM 100.2 °F - 40.5 °F 13% 29.75 in 6.2 mi WNW 8.1 mph - N/A   Clear
2:58 PM 99.3 °F - 38.8 °F 12% 29.74 in 6.2 mi NNW 10.4 mph - N/A   Partly Cloudy
3:58 PM 99.5 °F - 39.0 °F 12% 29.74 in 6.2 mi NNW 16.1 mph - N/A   Clear
4:58 PM 98.8 °F - 37.6 °F 12% 29.73 in 6.2 mi North 10.4 mph - N/A   Clear
5:58 PM 96.4 °F - 40.1 °F 14% 29.75 in 6.2 mi NNW 5.8 mph - N/A   Clear
6:58 PM 89.6 °F 89.5 °F 60.6 °F 38% 29.78 in 6.2 mi East 4.6 mph - N/A   Clear
7:58 PM 85.8 °F 86.3 °F 62.4 °F 45% 29.78 in 6.2 mi SSE 5.8 mph - N/A   Clear
8:58 PM 82.6 °F 84.1 °F 64.6 °F 54% 29.80 in 6.2 mi South 4.6 mph - N/A   Clear
9:58 PM 80.4 °F 82.2 °F 65.1 °F 59% 29.80 in 6.2 mi SSE 3.5 mph - N/A   Clear
10:58 PM 78.4 °F - 64.2 °F 62% 29.78 in 6.2 mi South 6.9 mph - N/A   Clear
11:58 PM 77.4 °F - 64.0 °F 63% 29.76 in 6.2 mi South 4.6 mph - N/A   Clear